[[{"header":{"parameterUnit":"m.s-1","parameterCategory":1,"la1":30.2991,"la2":30.254,"lo1":-89.0895,"lo2":-89.0444,"dy":0.0017,"dx":0.0017,"nx":28,"ny":28,"refTime":"2023-09-06T03:00:00:Z","depth":0,"parameterNumber":2,"parameterNumberName":"U-component_of_WINDS"},"data":[0,0,0,0,0,0,0,0,0,0,0,0,0,0,0,0,0,0,0,0,0,0,0,0,0,0,0,0,0,0,0,0,0,0,0,0,0,0,0,0,0,0,0,0,0,0,0,0,0,0,0,0,0,0,0,0,0,0,-3.6798,-3.6799,0,-3.689,-3.6892,-3.6893,-3.6854,-3.6852,-3.685,-3.6848,-3.6939,-3.6943,-3.6948,0,0,0,0,0,0,0,0,0,0,0,0,0,-3.6585,-3.6589,-3.6798,-3.6799,-3.68,-3.689,-3.6892,-3.6893,-3.6854,-3.6852,-3.6849,-3.6847,-3.6938,-3.6943,-3.6948,0,0,0,0,0,0,0,0,0,0,0,0,0,-3.6677,-3.659,-3.6798,-3.6792,-3.6792,-3.689,-3.6892,-3.6893,-3.6855,-3.6852,-3.6848,-3.6845,-3.6936,-3.6942,-3.6949,-3.7057,0,0,-3.697,-3.6972,0,0,0,0,0,0,0,0,-3.6672,-3.6685,-3.6792,-3.6793,-3.6793,-3.6857,-3.685,-3.6948,-3.6856,-3.6831,-3.6848,-3.6844,-3.6914,-3.6923,-3.6947,-3.7061,-3.7065,-3.697,-3.6974,-3.6977,-3.6979,0,0,0,0,0,0,0,-3.6666,-3.6681,-3.6834,-3.6793,-3.6794,-3.6784,-3.6793,-3.6868,-3.689,-3.6833,-3.683,-3.6842,-3.6914,-3.6941,-3.6949,-3.7066,-3.697,-3.6976,-3.698,-3.6983,-3.7272,-3.7276,0,0,0,0,0,0,-3.666,-3.6676,-3.6831,-3.6837,-3.6723,-3.679,-3.6801,-3.684,-3.6889,-3.6893,-3.6845,-3.684,-3.6931,-3.6941,-3.6952,-3.708,-3.6977,-3.6983,-3.6987,-3.7269,-3.7273,-3.7277,0,0,0,0,0,0,-3.6655,-3.6674,-3.6828,-3.6756,-3.6775,-3.6798,-3.6842,-3.6844,-3.687,-3.6898,-3.6901,-3.6868,-3.6929,-3.6943,-3.7031,-3.7083,-3.6986,-3.6992,-3.7264,-3.727,-3.7275,-3.7338,0,0,0,0,0,0,-3.6649,-3.6673,-3.6714,-3.6757,-3.6779,-3.6906,-3.6845,-3.6848,-3.6882,-3.6877,-3.6921,-3.6925,-3.6927,-3.7021,-3.7038,-3.709,-3.6998,-3.726,-3.7267,-3.7273,-3.7331,-3.7345,-3.7357,0,0,0,0,0,-3.6642,-3.6728,-3.6717,-3.6736,-3.6831,-3.6909,-3.6921,-3.6923,-3.6887,-3.6928,-3.6946,-3.6924,-3.7075,-3.7031,-3.7049,-3.7104,-3.7256,-3.7265,-3.7273,-3.7326,-3.7342,-3.7356,0,0,0,0,0,0,-3.6689,-3.6733,-3.6721,-3.6824,-3.6863,-3.6902,-3.6955,-3.6941,-3.699,-3.6982,-3.6982,-3.6992,-3.7083,-3.7103,-3.7052,-3.7211,-3.716,-3.7172,-3.7194,-3.721,-3.7222,-3.7214,-3.7003,0,0,0,0,0,-3.6711,-3.6772,-3.6807,-3.6894,-3.6914,-3.6932,-3.6965,-3.6963,-3.7004,-3.702,-3.7044,-3.7083,-3.7139,-3.7176,-3.723,-3.7335,-3.7343,-3.7382,-3.7395,-3.7405,-3.7415,-3.7471,-3.7488,-3.7304,-3.7304,-3.7304,0,0,-3.6758,-3.679,-3.6827,-3.6904,-3.6934,-3.6995,-3.6945,-3.7013,-3.7058,-3.7029,-3.7114,-3.7134,-3.7177,-3.7274,-3.7318,-3.7294,-3.7468,-3.7416,-3.7424,-3.7428,-3.7481,-3.7499,-3.7514,-3.731,-3.7309,-3.7308,0,0,-3.6873,-3.6904,-3.6979,-3.7011,-3.7058,-3.7069,-3.7088,-3.713,-3.7142,-3.7228,-3.7208,-3.7261,-3.7359,-3.739,-3.7419,-3.7548,-3.7529,-3.7566,-3.7631,-3.7686,-3.77,-3.7713,-3.7757,-3.7773,-3.7576,-3.7576,-3.7577,0,-3.6924,-3.7017,-3.702,-3.7089,-3.7122,-3.7102,-3.7177,-3.7208,-3.727,-3.7293,-3.7265,-3.7387,-3.7415,-3.7518,-3.755,-3.7575,-3.7595,-3.7559,-3.7698,-3.7711,-3.7723,-3.7765,-3.7782,-3.758,-3.758,-3.758,-3.7579,0,-3.7077,-3.7141,-3.7196,-3.7258,-3.7298,-3.737,-3.7383,-3.7423,-3.7419,-3.7433,-3.752,-3.7553,-3.7612,-3.7638,-3.7633,-3.7741,-3.7724,-3.7698,-3.7646,-3.7744,-3.7784,-3.78,-3.7586,-3.7585,-3.7584,-3.7583,0,0,-3.7221,-3.7285,-3.7305,-3.7332,-3.7383,-3.7433,-3.7504,-3.7563,-3.7597,-3.7641,-3.7699,-3.7784,-3.7759,-3.7792,-3.7792,-3.784,-3.7939,-3.7807,-3.7808,-3.7829,-3.8057,-3.8075,-3.8094,-3.7927,-3.7931,-3.7933,-3.8053,0,-3.7339,-3.7464,-3.7469,-3.7583,-3.7642,-3.7624,-3.7686,-3.7724,-3.7739,-3.7791,-3.7807,-3.7866,-3.7831,-3.785,-3.7898,-3.7917,-3.7984,-3.7908,-3.798,-3.7982,-3.7967,-3.8115,-3.8134,-3.8245,-3.8069,-3.8071,-3.8073,0,-3.7492,-3.7542,-3.7661,-3.7704,-3.7729,-3.7785,-3.784,-3.789,-3.7932,-3.794,-3.7978,-3.7971,-3.8042,-3.7991,-3.8089,-3.8038,-3.8068,-3.8082,-3.8086,-3.809,-3.8032,-3.8121,-3.8281,-3.8297,-3.8098,-3.8096,-3.8094,0,-3.7583,-3.768,-3.7764,-3.7788,-3.7841,-3.788,-3.7904,-3.7943,-3.7979,-3.8027,-3.805,-3.8106,-3.8135,-3.8178,-3.8186,-3.8148,-3.8284,-3.8234,-3.8291,-3.8291,-3.8317,-3.8315,-3.8482,-3.8342,-3.8341,-3.8341,-3.8341,0,-3.7712,-3.7785,-3.7805,-3.7856,-3.7938,-3.7944,-3.8024,-3.8045,-3.8081,-3.8135,-3.8124,-3.8175,-3.8183,-3.8236,-3.8243,-3.8322,-3.8336,-3.8344,-3.8344,-3.8343,-3.8342,-3.836,-3.8352,-3.8345,-3.8345,-3.8344,-3.8343,0,-3.7825,-3.7842,-3.7932,-3.7976,-3.7988,-3.8046,-3.8083,-3.8132,-3.8147,-3.8216,-3.8232,-3.8256,-3.8317,-3.833,-3.8403,-3.8408,-3.8502,-3.8496,-3.8487,-3.8486,-3.8541,-3.8535,-3.8724,-3.8748,-3.8594,-3.8596,-3.8597,0,-3.7905,-3.7961,-3.8011,-3.8047,-3.8073,-3.8132,-3.8168,-3.8177,-3.8215,-3.8268,-3.831,-3.8371,-3.842,-3.852,-3.8542,-3.8598,-3.8592,-3.8655,-3.86,-3.8597,-3.859,-3.8586,-3.859,-3.8664,-3.8665,-3.8667,-3.8668,0,-3.8044,-3.805,-3.8103,-3.8161,-3.8205,-3.825,-3.8293,-3.8323,-3.8337,-3.8381,-3.8444,-3.8483,-3.8558,-3.8618,-3.8674,-3.8697,-3.8685,-3.8686,-3.8701,-3.8699,-3.8691,-3.8694,-3.8513,-3.868,-3.8679,-3.8678,-3.8677,-3.8677,-3.8141,-3.819,-3.8233,-3.8293,-3.8327,-3.8367,-3.8415,-3.8437,-3.8491,-3.8553,-3.8555,-3.8624,-3.8666,-3.874,-3.8767,-3.8821,-3.8801,-3.8824,-3.883,-3.8835,-3.8839,-3.8686,-3.8832,-3.8831,-3.8831,-3.8831,-3.883,0,-3.8278,-3.8305,-3.8361,-3.8421,-3.8469,-3.8455,-3.8502,-3.8542,-3.8603,-3.8644,-3.8693,-3.8766,-3.8824,-3.8853,-3.8911,-3.8948,-3.8944,-3.8963,-3.8958,-3.8964,-3.8854,-3.8834,-3.8965,-3.8965,-3.8965,-3.8965,-3.8965,-3.8965,-3.8354,-3.8435,-3.8447,-3.8545,-3.8571,-3.864,-3.8668,-3.8705,-3.8737,-3.8819,-3.8868,-3.8887,-3.8923,-3.8983,-3.9036,-3.9043,-3.9064,-3.9085,-3.9089,-3.8985,-3.8972,-3.8958,-3.8939,-3.909,-3.9091,-3.9194,-3.9195,-3.9195]},{"header":{"parameterUnit":"m.s-1","parameterCategory":1,"la1":30.2991,"la2":30.254,"lo1":-89.0895,"lo2":-89.0444,"dy":0.0017,"dx":0.0017,"nx":28,"ny":28,"refTime":"2023-09-06T03:00:00:Z","depth":0,"parameterNumber":3,"parameterNumberName":"V-component_of_WINDS"},"data":[0,0,0,0,0,0,0,0,0,0,0,0,0,0,0,0,0,0,0,0,0,0,0,0,0,0,0,0,0,0,0,0,0,0,0,0,0,0,0,0,0,0,0,0,0,0,0,0,0,0,0,0,0,0,0,0,0,0,0.9579,0.958,0,0.9699,0.9701,0.9702,0.9702,0.9701,0.9699,0.9698,0.982,0.9825,0.9829,0,0,0,0,0,0,0,0,0,0,0,0,0,0.9349,0.9353,0.9579,0.958,0.9582,0.9699,0.9701,0.9703,0.9703,0.9701,0.9699,0.9697,0.9819,0.9824,0.983,0,0,0,0,0,0,0,0,0,0,0,0,0,0.9457,0.9354,0.9579,0.9596,0.9599,0.9699,0.9701,0.9703,0.9703,0.9701,0.9698,0.9696,0.9817,0.9824,0.9831,0.9921,0,0,0.9852,0.9855,0,0,0,0,0,0,0,0,0.9451,0.9465,0.9592,0.9595,0.9598,0.9683,0.9665,0.9776,0.9704,0.9663,0.9698,0.9695,0.9777,0.9787,0.9814,0.9927,0.9932,0.9853,0.9857,0.986,0.9862,0,0,0,0,0,0,0,0.9443,0.946,0.9627,0.9594,0.9598,0.9598,0.9611,0.9686,0.9732,0.9667,0.9667,0.9681,0.9778,0.9808,0.9817,0.9934,0.9853,0.9859,0.9863,0.9866,1.0127,1.013,0,0,0,0,0,0,0.9432,0.9454,0.9623,0.963,0.9517,0.9604,0.9618,0.9658,0.9731,0.974,0.9683,0.9681,0.9797,0.9809,0.9822,0.9933,0.986,0.9867,0.9871,1.0125,1.0128,1.0131,0,0,0,0,0,0,0.9427,0.9447,0.9618,0.9542,0.9564,0.961,0.9656,0.9662,0.9692,0.9743,0.9751,0.9705,0.9795,0.9812,0.9897,0.9937,0.987,0.9876,1.0121,1.0126,1.0129,1.0155,0,0,0,0,0,0,0.9421,0.9445,0.948,0.9543,0.9568,0.9691,0.9658,0.9666,0.9704,0.9702,0.9766,0.9774,0.9795,0.9886,0.9904,0.9945,0.9882,1.0118,1.0123,1.0128,1.0151,1.016,1.0167,0,0,0,0,0,0.9412,0.9482,0.9482,0.9502,0.9612,0.9693,0.9707,0.973,0.9707,0.9743,0.9776,0.9772,0.993,0.9895,0.9915,0.9959,1.0115,1.0122,1.0128,1.0147,1.0158,1.0167,0,0,0,0,0,0,0.9422,0.9491,0.9491,0.9583,0.9633,0.9693,0.9738,0.974,0.9796,0.9792,0.9817,0.9832,0.9916,0.9946,0.9906,1.0051,1.002,1.003,1.0028,1.0039,1.0047,1.0037,0.9888,0,0,0,0,0,0.9436,0.9496,0.9552,0.9628,0.9653,0.9691,0.9727,0.974,0.9792,0.9813,0.9852,0.9902,0.9963,1.0003,1.0061,1.0155,1.017,1.0196,1.0204,1.021,1.0219,1.0272,1.0284,1.0151,1.0151,1.015,0,0,0.9463,0.9508,0.9544,0.9631,0.9671,0.9732,0.9709,0.9775,0.9821,0.9823,0.9905,0.9936,0.9994,1.0084,1.0126,1.0111,1.0259,1.0218,1.0223,1.0228,1.0279,1.0292,1.0303,1.0155,1.0154,1.0153,0,0,0.9544,0.9584,0.9652,0.9693,0.9753,0.9779,0.9795,0.9856,0.9876,0.996,0.9963,1.0018,1.0122,1.0163,1.0198,1.0297,1.0295,1.0315,1.0357,1.0408,1.0419,1.0428,1.0464,1.0476,1.0323,1.0323,1.0323,0,0.957,0.9664,0.9687,0.9754,0.9792,0.9797,0.9867,0.9905,0.9981,1.0008,0.9991,1.0122,1.0162,1.0262,1.0286,1.0314,1.0333,1.0308,1.0415,1.0425,1.0434,1.0468,1.0481,1.0325,1.0325,1.0325,1.0325,0,0.9693,0.9758,0.9806,0.988,0.9924,0.9992,1.0025,1.0067,1.0076,1.0104,1.0189,1.0237,1.0305,1.033,1.034,1.0432,1.0422,1.041,1.0379,1.0448,1.0481,1.0494,1.0328,1.0328,1.0327,1.0326,0,0,0.9783,0.9871,0.9888,0.9922,0.999,1.004,1.0108,1.0176,1.0212,1.0265,1.0323,1.0411,1.0401,1.044,1.0455,1.05,1.0576,1.0483,1.0485,1.0498,1.0681,1.0689,1.0704,1.0575,1.0578,1.058,1.0676,0,0.9872,0.9994,1.0017,1.0122,1.0183,1.0189,1.0249,1.0297,1.0325,1.038,1.041,1.0473,1.0454,1.0478,1.0523,1.0557,1.0612,1.055,1.0629,1.0632,1.0615,1.0721,1.073,1.0818,1.0689,1.0691,1.0693,0,0.9992,1.0048,1.016,1.0221,1.0247,1.03,1.0365,1.0417,1.0472,1.0489,1.0534,1.0544,1.0615,1.0581,1.068,1.0637,1.0671,1.0693,1.0697,1.0705,1.0666,1.0732,1.0847,1.086,1.0713,1.0711,1.071,0,1.0047,1.0151,1.0231,1.026,1.0333,1.037,1.0402,1.0455,1.0495,1.0551,1.0577,1.0641,1.0676,1.0725,1.0752,1.0725,1.0849,1.0818,1.0865,1.0865,1.0891,1.0889,1.1013,1.0913,1.0913,1.0912,1.0912,0,1.0143,1.0211,1.0257,1.0307,1.0383,1.041,1.0485,1.0517,1.0564,1.0619,1.0629,1.0681,1.0714,1.0771,1.0792,1.0871,1.0886,1.0902,1.0907,1.0902,1.09,1.0924,1.0918,1.0916,1.0915,1.0914,1.0914,0,1.0217,1.0251,1.0339,1.0401,1.0418,1.0472,1.0525,1.0574,1.0602,1.0672,1.069,1.0734,1.0802,1.0834,1.0917,1.0932,1.1022,1.1022,1.1003,1.1005,1.1051,1.1046,1.1195,1.1216,1.1102,1.1103,1.1104,0,1.0276,1.0329,1.0397,1.0436,1.0469,1.053,1.0571,1.06,1.0642,1.0709,1.0749,1.0818,1.0874,1.0981,1.1021,1.1085,1.1087,1.1135,1.1097,1.109,1.1088,1.1085,1.1091,1.1142,1.1143,1.1144,1.1144,0,1.0378,1.0393,1.0451,1.0516,1.0565,1.0617,1.0669,1.0699,1.0736,1.0783,1.0853,1.0896,1.0982,1.105,1.1117,1.115,1.1154,1.1156,1.1171,1.1165,1.1152,1.116,1.1022,1.1153,1.1152,1.1151,1.1151,1.115,1.0447,1.0495,1.055,1.0616,1.0657,1.0706,1.0754,1.0789,1.0848,1.092,1.0933,1.1008,1.1062,1.1153,1.1188,1.1247,1.1236,1.1256,1.1262,1.1266,1.1269,1.1143,1.1259,1.1259,1.1258,1.1258,1.1258,0,1.055,1.0586,1.0646,1.0718,1.077,1.0769,1.0827,1.087,1.0935,1.0986,1.1041,1.1121,1.1187,1.1232,1.1299,1.1338,1.1341,1.1354,1.1352,1.1359,1.1275,1.1256,1.135,1.135,1.135,1.135,1.135,1.135,1.0609,1.069,1.0711,1.0813,1.0849,1.0922,1.0954,1.0999,1.104,1.1129,1.1185,1.1214,1.1262,1.1333,1.1394,1.1405,1.143,1.1443,1.1454,1.1375,1.1365,1.1356,1.1338,1.1448,1.1448,1.1534,1.1535,1.1535]}]]